Weather observations for the past three days for
Ardmore, Ardmore Downtown Executive Airport
Imperial (Metric)
Date Time (cdt) Wind (mph) Vis. (mi.) Weather Sky Cond. Temperature (ºF) Relative Humidity Wind Chill (°F) Heat Index (°F) Pressure Precipitation (in)
Air Dwpt 6 hour altimeter (in) sea level (mb) 1 hr 3 hr 6 hr
Max. Min.
23 19:15 SE 9 10.00 Fair CLR 84.4 68 58% 88 30.03 0.0
23 18:55 SE 7 10.00 Fair CLR 85.3 68.4 89.6 84.6 57% 89 30.02 0.0
23 18:35 SE 8 10.00 Fair CLR 85.6 68.2 56% 89 30.03 0.0
23 18:15 SE 9 10.00 Fair CLR 86.2 69.1 57% 90 30.03 0.0
23 17:55 SE 10 10.00 Partly Cloudy SCT075 86.9 69.1 55% 91 30.03 0.0
23 17:35 SE 8 10.00 Partly Cloudy SCT046 SCT050 SCT075 85.3 69.1 58% 89 30.03 0.0
23 17:15 E 8 10.00 Partly Cloudy SCT046 SCT050 88.3 67.5 50% 92 30.03 0.0
23 16:55 E 5 10.00 Fair CLR 88.9 66.2 47% 91 30.03 0.0
23 16:35 E 6 10.00 Partly Cloudy SCT046 SCT050 86.7 66.7 51% 89 30.03 0.0
23 16:15 S 9 10.00 Partly Cloudy SCT050 SCT095 88.7 68.7 52% 93 30.03 0.0
23 15:55 SE 8 10.00 Partly Cloudy SCT048 SCT095 87.8 67.8 52% 91 30.04 0.0
23 15:15 E 7 10.00 Partly Cloudy SCT048 87.4 66.9 51% 90 30.04 0.0
23 14:55 NE 6 10.00 Partly Cloudy SCT048 SCT060 SCT070 86.2 66.2 51% 89 30.05 0.0
23 14:35 E 7 10.00 Partly Cloudy SCT046 SCT050 SCT070 87.6 67.3 51% 91 30.05 0.0
23 14:15 E 6 10.00 Partly Cloudy SCT043 SCT048 SCT090 86.5 68 54% 90 30.05 0.0
23 13:55 E 3 10.00 Fair CLR 86.9 66.6 51% 90 30.05 0.0
23 13:35 Calm 10.00 Partly Cloudy SCT065 84.9 67.3 56% 88 30.05 0.0
23 13:15 SE 5 10.00 Partly Cloudy SCT044 SCT060 86.4 66.4 51% 89 30.06 0.0
23 12:55 E 7 10.00 Mostly Cloudy SCT044 BKN060 BKN070 84.7 67.6 86.4 67.3 57% 88 30.07 0.0
23 12:35 NE 7 10.00 Partly Cloudy SCT070 SCT085 83.1 67.3 59% 86 30.07 0.0
23 12:15 NE 9 10.00 Fair CLR 85.1 67.1 55% 88 30.07 0.0
23 11:55 E 8 10.00 Partly Cloudy SCT041 85.6 66.4 53% 88 30.08 0.0
23 11:35 NE 6 10.00 Partly Cloudy SCT035 84 66.4 55% 86 30.07 0.0
23 11:15 NE 6 10.00 Partly Cloudy SCT033 SCT042 SCT120 84.2 66.6 56% 87 30.08 0.0
23 10:55 E 3 10.00 Mostly Cloudy SCT031 SCT042 BKN050 81.7 68 63% 85 30.07 0.0
23 10:35 NE 5 10.00 Mostly Cloudy BKN029 BKN035 BKN043 82.8 68.4 62% 86 30.07 0.0
23 10:15 NW 6 10.00 Partly Cloudy SCT027 81.7 68.7 65% 85 30.07 0.0
23 09:55 N 7 10.00 Fair CLR 80.8 70.2 70% 84 30.07 0.0
23 09:35 NE 6 10.00 Fair CLR 80.1 69.8 71% 83 30.07 0.0
23 09:15 N 5 10.00 Fair CLR 78.8 70.5 76% 82 30.06 0.0
23 08:55 NE 3 10.00 Fair CLR 77.4 70.3 79% 79 30.06 0.0
23 08:35 NE 3 10.00 Fair CLR 75.9 70.7 84% 77 30.06 0.0
23 08:15 Calm 10.00 Fair CLR 74.7 70 85% 30.05 0.0
23 07:55 N 3 10.00 Fair CLR 72.9 69.4 89% 30.05 0.0
23 07:35 Calm 10.00 Fair CLR 71.2 69.1 93% 30.04 0.0
23 07:15 Calm 10.00 Fair CLR 69.1 67.8 96% 30.04 0.0
23 06:55 Calm 5.00 Fog/Mist CLR 67.1 66.2 70.5 66.9 97% 30.04 0.0
23 06:35 Calm 5.00 Fog/Mist CLR 67.1 66.2 97% 30.04 0.0
23 06:15 Calm 5.00 Fog/Mist CLR 67.6 66.4 96% 30.03 0.0
23 05:55 Calm 5.00 Fog/Mist CLR 67.6 66.6 96% 30.03 0.0
23 05:35 Calm 7.00 Fair CLR 68.4 66.9 95% 30.02 0.0
23 05:15 Calm 7.00 Fair CLR 68.4 67.1 96% 30.02 0.0
23 04:55 N 3 7.00 Fog/Mist CLR 67.8 66.9 97% 30.02 0.0
23 04:35 Calm 5.00 Fog/Mist CLR 67.8 66.9 97% 30.02 0.0
23 04:15 Calm 5.00 Fog/Mist CLR 67.8 66.9 97% 30.02 0.0
23 03:55 Calm 5.00 Fog/Mist CLR 68.2 67.3 97% 30.02 0.0
23 03:35 Calm 5.00 Fog/Mist CLR 68 66.9 96% 30.02 0.0
23 03:15 Calm 5.00 Fog/Mist CLR 68.2 67.1 96% 30.01 0.0
23 02:55 Calm 7.00 Fog/Mist CLR 68.5 67.6 97% 30.01 0.0
23 02:35 Calm 5.00 Fog/Mist CLR 68.7 67.6 96% 30 0.0
23 02:15 Calm 7.00 Fog/Mist CLR 69.1 68 96% 30.01 0.0
23 01:55 Calm 7.00 Fair CLR 69.6 68.4 96% 30 0.0
23 01:35 Calm 7.00 Fog/Mist CLR 69.8 68.5 96% 30 0.0
23 01:15 N 3 10.00 Fair CLR 70.2 68.7 95% 30 0.0
23 00:55 Calm 10.00 Fair CLR 70.5 68.7 84.4 69.6 94% 30.01 0.0
23 00:35 Calm 7.00 Fair CLR 70.2 69.1 96% 30.01 0.0
23 00:15 Calm 10.00 Partly Cloudy SCT045 70 68.7 96% 30.01 0.0
22 23:55 W 3 10.00 Partly Cloudy SCT043 SCT049 70.2 68.7 95% 30.02 0.0
22 23:35 Calm 10.00 Partly Cloudy SCT043 70.2 68.7 95% 30.02 0.0
22 23:15 Calm 10.00 Partly Cloudy SCT043 70.5 68.4 93% 30.02 0.0
22 22:55 Calm 10.00 Fair CLR 70.5 68.4 93% 30.02 0.0
22 22:35 Calm 10.00 Fair CLR 71.8 68.7 90% 30.02 0.0
22 22:15 Calm 10.00 Fair CLR 71.1 68.7 92% 30.02 0.0
22 21:55 Calm 10.00 Fair CLR 72.1 69.1 90% 30.01 0.0
22 21:35 Calm 10.00 Fair CLR 72.9 69.3 89% 30 0.0
22 21:15 Calm 10.00 Fair CLR 72.7 69.4 90% 29.99 0.0
22 20:55 Calm 10.00 Fair CLR 74.7 69.3 83% 29.99 0.0
22 20:35 Calm 10.00 Fair CLR 75.7 69.6 81% 76 29.99 0.0
22 20:15 Calm 10.00 Fair CLR 77.5 69.1 75% 79 29.98 0.0
22 19:55 SE 3 10.00 Fair CLR 80.6 68.7 67% 84 29.97 0.0
22 19:35 Calm 10.00 Fair CLR 80.1 67.1 65% 82 29.98 0.0
22 19:20 E 3 10.00 Fair CLR 82.6 64.6 55% 84 29.98 0.0
22 18:55 NE 5 10.00 Fair CLR 84.2 64.6 85.1 79.3 52% 86 29.97 0.0
22 18:35 NE 7 10.00 Fair CLR 84.2 65.7 54% 86 29.98 0.0
22 18:15 N 5 10.00 Fair CLR 84.4 65.5 53% 86 29.98 0.0
22 17:55 NE 6 10.00 Fair CLR 84.6 64.6 51% 86 29.98 0.0
22 17:35 Calm 10.00 Fair CLR 84.4 65.8 54% 87 29.98 0.0
22 17:15 NE 8 10.00 Fair CLR 84.7 66.6 55% 87 29.98 0.0
22 16:55 NE 8 10.00 Partly Cloudy SCT036 84.6 67.5 57% 88 29.98 0.0
22 16:35 N 6 10.00 Fair CLR 83.3 67.3 59% 86 29.99 0.0
22 16:15 N 7 10.00 Fair CLR 84.4 67.8 58% 88 29.99 0.0
22 15:55 N 8 10.00 Fair CLR 83.3 67.8 60% 86 29.99 0.0
22 15:35 NE 7 10.00 Fair CLR 82.6 68.4 62% 86 29.99 0.0
22 15:15 N 8 10.00 Fair CLR 81.7 67.3 62% 84 30.01 0.0
22 14:55 N 7 10.00 Fair CLR 81.3 66.7 61% 84 30.01 0.0
22 14:35 NE 6 10.00 Fair CLR 81.9 68 63% 85 30.02 0.0
22 14:15 NE 9 10.00 Partly Cloudy SCT028 SCT036 SCT050 81.9 68.7 65% 85 30.03 0.0
22 13:55 N 6 10.00 Partly Cloudy SCT028 SCT036 81.1 68.5 66% 84 30.04 0.0
22 13:35 NE 8 10.00 Partly Cloudy SCT021 SCT035 81.1 69.3 67% 84 30.04 0.0
22 13:15 E 6 10.00 Partly Cloudy SCT021 80.2 70.2 71% 84 30.04 0.0
22 12:55 NE 6 10.00 Fair CLR 79.3 70 80.2 69.4 73% 82 30.05 0.0
22 12:35 NE 10 10.00 Partly Cloudy SCT019 SCT041 79.7 70 72% 83 30.05 0.0
22 12:15 E 8 10.00 Partly Cloudy SCT015 SCT029 79 70 74% 82 30.05 0.0
22 11:55 NE 7 10.00 Partly Cloudy SCT013 SCT029 78.6 70.9 77% 81 30.06 0.0
22 11:35 N 8 10.00 Overcast BKN011 OVC025 77.9 71.1 80% 80 30.06 0.0
22 11:15 NE 7 10.00 Overcast SCT013 BKN020 OVC024 76.8 71.1 82% 78 30.06 0.0
22 10:55 NE 6 10.00 Overcast OVC013 75 70.5 86% 75 30.06 0.0
22 10:35 NE 7 10.00 Overcast OVC009 75 70.9 87% 75 30.06 0.0
22 10:15 NE 8 10.00 Overcast OVC009 74.5 70.7 88% 30.05 0.0
22 09:55 N 6 10.00 Overcast OVC007 74.7 71.1 89% 30.05 0.0
22 09:35 N 3 10.00 Overcast OVC007 74.3 70.9 89% 30.05 0.0
22 09:15 N 8 10.00 Mostly Cloudy BKN007 74.3 70.9 89% 30.04 0.0
22 08:55 N 8 10.00 Partly Cloudy SCT009 73.4 70.5 91% 30.04 0.0
22 08:35 N 8 10.00 Overcast OVC009 72.3 70.2 93% 30.03 0.0
22 08:15 N 5 7.00 Mostly Cloudy BKN009 71.4 69.8 95% 30.03 0.0
22 07:55 N 5 10.00 Partly Cloudy SCT011 70.5 69.1 95% 30.03 0.0
22 07:35 N 6 10.00 Mostly Cloudy SCT011 BKN028 69.6 68.2 95% 30.03 0.0
22 07:15 NE 3 10.00 Mostly Cloudy BKN026 69.6 68.2 95% 30.03 0.0
22 06:55 Calm 10.00 Partly Cloudy SCT026 69.4 68 72.9 69.4 95% 30.03 0.0 0.06
22 06:35 Calm 10.00 Fair CLR 69.4 67.8 95% 30.03 0.0
22 06:15 Calm 10.00 Partly Cloudy SCT100 69.6 68 95% 30.02 0.0
22 05:55 Calm 10.00 Partly Cloudy SCT100 70 68.4 95% 30.02 0.0
22 05:35 Calm 10.00 Fair CLR 70 68.9 96% 30.02 0.0
22 05:15 Calm 7.00 Fair CLR 70.3 69.3 96% 30.01 0.0
22 04:55 Calm 7.00 Partly Cloudy SCT032 70.7 69.4 96% 30.01 0.0
22 04:35 E 3 7.00 Overcast BKN029 OVC034 71.1 69.8 96% 30.01 0.0
22 04:15 Calm 7.00 Overcast BKN025 BKN030 OVC044 71.2 70.2 96% 30.01 0.0
22 03:55 SE 3 10.00 Partly Cloudy SCT044 71.1 69.6 95% 30.02 0.0 0.06
22 03:35 NE 5 10.00 Partly Cloudy SCT110 71.6 70.2 95% 30 0.0
22 03:15 Calm 10.00 Mostly Cloudy BKN100 72.1 70.5 95% 30 0.0
22 02:55 Calm 10.00 Overcast OVC090 72 70.7 96% 30.01 0.0
22 02:35 Calm 7.00 Overcast OVC090 71.8 70.5 96% 30.01 0.0
22 02:15 Calm 10.00 Overcast SCT070 OVC090 71.8 70.2 95% 30.01 0.0
22 01:55 NE 5 10.00 Overcast SCT060 SCT070 OVC090 72.1 70.2 94% 30.01 0.0 0.06
22 01:35 NE 6 4.00 Light Rain Fog/Mist SCT016 BKN039 OVC085 72 70.2 94% 30.03 0.0 0.06
22 01:15 Calm 10.00 Light Rain SCT014 BKN031 OVC038 72.5 70.7 94% 30.04 0.0
22 00:55 Calm 10.00 Overcast SCT004 BKN029 OVC035 72.9 70.5 79 72.5 92% 30.05 0.0 0.02
22 00:35 N 8 7.00 Overcast SCT004 BKN043 OVC090 73.6 72.1 95% 30.04 0.0
22 00:15 Calm 10.00 Overcast SCT043 OVC090 73.2 71.8 95% 30.04 0.0
21 23:55 W 3 10.00 Overcast OVC090 73 71.6 95% 30.04 0.0
21 23:35 NW 3 10.00 Overcast OVC080 73.2 71.8 95% 30.04 0.0
21 23:15 W 5 10.00 Overcast BKN080 OVC090 73.4 71.6 94% 30.04 0.0
21 22:55 Calm 10.00 Light Rain SCT035 BKN050 OVC080 73.6 71.2 92% 30.03 0.0 0.02
21 22:35 W 5 7.00 Light Rain Fog/Mist BKN035 OVC046 73.9 71.1 91% 30.04 0.0 0.01
21 22:15 Calm 10.00 Light Rain SCT033 OVC046 75.2 69.8 83% 75 30.04 0.0
21 21:55 E 8 10.00 Overcast BKN031 OVC042 75.6 69.4 81% 76 30.03 0.0
21 21:35 E 7 10.00 Overcast BKN045 OVC070 77.4 70.3 79% 79 30.02 0.0
21 21:15 E 3 10.00 Overcast SCT049 BKN070 OVC080 77.5 69.8 77% 79 30.01 0.0
21 20:55 NE 5 10.00 Overcast SCT044 BKN060 OVC070 77.4 69.3 76% 79 30 0.0
21 20:35 SE 5 10.00 Overcast BKN040 OVC047 77.7 68.9 74% 80 30 0.0
21 20:15 E 5 10.00 Overcast BKN033 OVC042 78.4 69.4 74% 81 30 0.0
21 19:55 NE 7 10.00 Mostly Cloudy BKN033 BKN038 78.8 67.6 69% 81 30 0.0
21 19:35 NE 5 10.00 Partly Cloudy SCT035 78.6 67.5 69% 81 30 0.0
21 19:15 NE 5 10.00 Partly Cloudy SCT037 78.8 67.6 69% 81 29.99 0.0
21 18:55 NE 7 10.00 Partly Cloudy SCT035 SCT048 SCT060 78.8 67.6 87.1 78.8 69% 81 29.99 0.0
21 18:35 NE 9 10.00 Mostly Cloudy SCT032 SCT040 BKN048 80.6 68.2 66% 83 29.98 0.0
21 18:15 E 5 10.00 Partly Cloudy SCT032 SCT047 SCT060 85.6 70.9 61% 91 29.97 0.0
21 17:55 E 7 10.00 Partly Cloudy SCT032 85.6 71.2 62% 91 29.98 0.0
21 17:35 SE 6 10.00 Fair CLR 85.3 71.4 63% 91 29.97 0.0
21 17:15 SE 6 10.00 Fair CLR 85.1 72.3 66% 91 29.97 0.0
21 16:55 SE 6 10.00 Partly Cloudy SCT034 SCT041 82.9 71.6 69% 88 29.97 0.0
21 16:35 SE 6 10.00 Mostly Cloudy SCT034 BKN041 83.3 70.9 66% 88 29.98 0.0
21 16:15 S 6 10.00 Fair CLR 84.2 70.9 64% 89 29.98 0.0
21 15:55 S 3 10.00 Fair CLR 84.9 70.5 62% 90 29.98 0.0
21 15:35 S 7 10.00 Partly Cloudy SCT034 SCT042 85.3 70.3 61% 90 29.98 0.0
21 15:15 SE 10 10.00 Mostly Cloudy SCT032 BKN044 86.2 71.4 62% 92 29.99 0.0
21 14:55 S 9 10.00 Mostly Cloudy SCT030 BKN044 BKN050 84.4 70.9 64% 89 30 0.0
21 14:35 SE 10 10.00 Mostly Cloudy BKN046 BKN055 84.7 70.9 63% 90 30.01 0.0
21 14:15 SE 12 10.00 Overcast SCT033 OVC046 83.5 70 64% 88 30.02 0.0
21 13:55 SE 10 10.00 Overcast BKN040 OVC047 83.1 70.5 66% 88 30.03 0.0
21 13:35 SE 10 10.00 Overcast SCT025 BKN042 OVC075 81.5 70.5 69% 85 30.03 0.0
21 13:15 SE 13 G 17 10.00 Overcast SCT023 BKN065 OVC075 82.4 70.7 68% 87 30.04 0.0
21 12:55 SE 14 G 18 10.00 Mostly Cloudy SCT023 BKN065 81.5 70.5 83.5 70.7 69% 85 30.04 0.0 0.02
21 12:35 S 13 G 16 10.00 Mostly Cloudy BKN021 BKN028 BKN075 82.2 71.4 70% 87 30.04 0.0
21 12:15 SE 12 10.00 Mostly Cloudy SCT021 BKN026 BKN038 82.2 71.4 70% 87 30.04 0.0
21 11:55 S 9 10.00 Mostly Cloudy BKN022 BKN036 82.2 71.1 69% 87 30.05 0.0
21 11:35 SE 8 10.00 Overcast OVC022 80.4 70.5 72% 84 30.05 0.0
21 11:15 E 7 10.00 Overcast SCT024 OVC055 80.6 70.5 71% 84 30.05 0.0
21 10:55 NE 6 10.00 Mostly Cloudy SCT026 SCT040 BKN055 80.1 70.2 72% 83 30.05 0.0
21 10:35 Calm 10.00 Fair CLR 79.7 68.7 69% 82 30.05 0.0
21 10:15 S 5 10.00 Fair CLR 79.2 68.7 70% 82 30.05 0.0
21 09:55 S 5 10.00 Partly Cloudy SCT065 SCT100 77.9 68.7 73% 80 30.06 0.0 0.02
21 09:35 S 7 10.00 Mostly Cloudy BKN065 BKN080 77 69.6 78% 79 30.06 0.0
21 09:15 SE 5 10.00 Mostly Cloudy BKN065 BKN080 75.7 69.3 80% 77 30.06 0.0
21 08:55 S 7 10.00 Mostly Cloudy BKN080 75.2 69.6 83% 75 30.06 0.0 0.02
21 08:35 S 5 10.00 Partly Cloudy SCT021 SCT046 SCT120 74.8 70.2 85% 30.05 0.0 0.02
21 08:15 S 3 10.00 Mostly Cloudy SCT070 BKN090 BKN100 72.7 70.5 93% 30.05 0.0
21 07:55 SE 5 10.00 Overcast SCT065 OVC080 71.6 69.6 94% 30.05 0.0
21 07:35 S 3 7.00 Overcast SCT060 OVC080 70.9 69.3 95% 30.04 0.0
21 07:15 Calm 10.00 Mostly Cloudy SCT060 BKN080 BKN110 70.9 68.9 94% 30.04 0.0
21 06:55 Calm 10.00 Mostly Cloudy BKN080 70.9 68.9 79.5 70.7 94% 30.04 0.0 0.03 0.6
21 06:35 Calm 10.00 Overcast OVC080 71.2 68.9 92% 30.03 0.0 0.03
21 06:15 S 5 10.00 Light Rain SCT016 SCT040 OVC080 71.4 67.8 88% 30.02 0.0 0.03
21 05:35 W 7 10.00 Overcast BKN065 OVC080 72.9 69.4 89% 30.03 0.0
21 05:15 S 5 10.00 Overcast SCT080 OVC100 72.5 69.3 90% 30 0.0
21 04:55 S 3 10.00 Overcast SCT080 OVC100 72.5 68.9 89% 30 0.0
21 04:35 Calm 10.00 Mostly Cloudy SCT080 BKN110 72.3 69.8 92% 30.01 0.0
21 04:15 Calm 10.00 Partly Cloudy SCT120 72.9 70 91% 30.01 0.0
21 03:55 Calm 10.00 Mostly Cloudy SCT080 BKN120 72.5 69.8 91% 30.01 0.0 0.07 0.07
21 03:35 S 3 7.00 Overcast SCT050 BKN080 OVC110 73.2 70.9 92% 30.02 0.0 0.07
21 03:15 NE 5 4.00 Light Rain SCT019 SCT048 OVC070 74.5 69.1 83% 30.02 0.0 0.07
21 02:55 N 3 10.00 Overcast OVC070 77.9 65.7 66% 80 30.03 0.0
21 02:35 W 5 10.00 Overcast OVC070 77.7 65.7 67% 80 30.03 0.0
21 02:15 S 5 10.00 Overcast OVC070 78.3 65.5 65% 80 30.03 0.0
21 01:55 S 3 10.00 Overcast OVC070 78.6 65.5 64% 81 30.03 0.0
21 01:35 S 7 10.00 Mostly Cloudy BKN080 BKN090 BKN120 78.8 65.7 64% 81 30.03 0.0
21 01:15 S 8 10.00 Mostly Cloudy SCT070 BKN080 79.5 66 63% 82 30.03 0.0
21 00:55 SE 7 10.00 Mostly Cloudy BKN070 BKN080 78.4 66.4 86.4 76.1 67% 80 30.03 0.0
21 00:35 SE 6 10.00 Fair CLR 78.3 66.2 67% 80 30.03 0.0
21 00:15 SE 8 10.00 Fair CLR 78.3 66 66% 80 30.02 0.0
20 23:55 SE 7 10.00 Fair CLR 78.4 66.2 66% 80 30.03 0.0
20 23:35 SE 8 10.00 Partly Cloudy SCT070 SCT080 78.4 66.7 67% 80 30.03 0.0
20 22:55 SE 3 10.00 Fair CLR 77.2 67.6 73% 79 30.03 0.0
20 22:35 SE 5 10.00 Fair CLR 77 68.2 74% 79 30.02 0.0
20 22:15 E 3 10.00 Fair CLR 77.9 68.2 72% 80 30.02 0.0
20 21:55 Calm 10.00 Fair CLR 77.7 68.5 73% 80 30.01 0.0
20 21:35 Calm 10.00 Fair CLR 79.9 68.4 68% 83 30.01 0.0
20 21:15 Calm 10.00 Fair CLR 80.4 68.4 67% 83 30 0.0
20 20:55 S 3 10.00 Partly Cloudy SCT085 81.3 68.4 65% 84 29.99 0.0
20 20:35 E 3 10.00 Mostly Cloudy BKN085 83.5 67.8 59% 87 29.99 0.0
20 20:15 E 5 10.00 Mostly Cloudy BKN085 85.5 67.3 55% 88 29.99 0.0
20 19:55 E 5 10.00 Partly Cloudy SCT065 SCT085 86.2 67.1 53% 89 29.99 0.0
20 19:35 E 5 10.00 Fair CLR 85.8 67.5 54% 89 29.98 0.0
Date Time (cdt) Wind (mph) Vis. (mi.) Weather Sky Cond. Air Dwpt Max. Min. Relative Humidity Wind Chill (°F) Heat Index (°F) altimeter (in) sea level (mb) 1 hr 3 hr 6 hr
6 hour
Temperature (ºF) Pressure Precipitation (in)